sat.trackr.live / text

‹ back to catalog

STARLINK-36667

NORAD 68975 · 2026-099AA

PAYLOAD ACTIVE UNKNOWN

§ Identity

Operator
Country
US
Launch date
2026-05-01
Launch site
AFETR
Launch vehicle
Mass (kg)
RCS (m²)

Purposes: comms

External: N2YO · Heavens-Above · Gunter

§ Orbital elements

Epoch: 2026-09-19T19:40:14.115648Z

Period
93.85 min
Inclination
53.1597°
Eccentricity
0.0001033
Mean motion
15.34399146 rev/d
Perigee alt
462.0 km
Apogee alt
463.4 km
Semi-major
6,840.8 km
B*
7.8662e-4
RAAN
78.7017°
Arg perigee
65.8619°
Mean anomaly
294.2492°
Rev number
2,180

§ Raw data

STARLINK-366671 68975U 26099AA  26262.81960782  .00026293  00000+0  78662-3 0  99932 68975  53.1597  78.7017 0001033  65.8619 294.2492 15.34399146 21807

JSON: /api/v1/satellites/68975 · /tle

For live sub-satellite position, see the globe view (requires WebGL).

§ Visibility from observer

Set your observer location to see the next 7 days of passes ≥ 10°. The values pass through the URL so the page stays shareable.

No JS? Fill the form by hand. The geolocation button needs JavaScript.